Regional Weather Roundup
Issued by NWS Grand Forks, ND

Home | Current Version | Previous Version | Graphics & Text | Print | Product List | Glossary On
Versions: 1 2 3 4 5 6 7 8 9 10 11 12 13 14 15 16 17 18 19 20 21 22 23 24 25 26 27 28 29 30 31 32 33 34 35 36 37 38 39 40 41 42 43 44 45 46 47 48 49 50
000
ASUS43 KFGF 260110
RWRFGF
PRAIRIE TO PINES  WEATHER ROUNDUP
NATIONAL WEATHER SERVICE EASTERN NORTH DAKOTA/GRAND FORKS ND
700 PM CST SUN JAN 25 2015

 **SATELLITE DATA USED TO AUGMENT SKY COVER AT AUTOMATED STATIONS**
 *****  WEATHER ACROSS EASTERN NORTH DAKOTA  *****

CITY           SKY/WX    TMP DP  RH WIND       PRES   REMARKS
GRAND FORKS    CLOUDY    26  19  74 S13       29.91F WCI  15
GRAND FRKS AFB CLOUDY    26  20  77 S10       29.90F WCI  16
GRAND FRKS NWS   N/A     25 N/A N/A S13         N/A  WCI  13
DEVILS LAKE    CLOUDY    27  25  93 S12       29.83F WCI  16
FARGO          CLOUDY    26  18  71 S10       29.97F WCI  16
WAHPETON ARPT  MOCLDY    27  19  74 SE5       30.00F WCI  21
$$

 ***** WEATHER ACROSS CENTRAL AND WESTERN NORTH DAKOTA  *****

CITY           SKY/WX    TMP DP  RH WIND       PRES   REMARKS
BISMARCK       CLOUDY    36  32  85 SW5       29.88F
MINOT          CLOUDY    36  31  82 S13       29.75F
JAMESTOWN      CLOUDY    30  28  92 S8        29.88F WCI  22
MINOT AFB      CLOUDY    36  35  99 SW18      29.73F
GARRISON         N/A     35  32  88 SW8       29.81F
WILLISTON      MOCLDY    39  32  76 SW7       29.78F
DICKINSON      MOCLDY    42  32  67 SW15      29.83S
HETTINGER      MOCLDY    38  26  62 SW5       29.89F
$$

 *****  OTHER AIRPORT OBSERVATIONS IN OUR AREA  *****

CITY           SKY/WX    TMP DP  RH WIND       PRES   REMARKS
WALHALLA         N/A     25  25 100 S9        29.81F WCI  15
GRAFTON AIRPOR NOT AVBL
VALLEY CITY AR NOT AVBL
CANDO          CLOUDY    25  25 100 S15       29.81F WCI  12
CAVALIER APRT  FAIR      27  23  86 S14G22    29.82F WCI  15
GWINNER        CLOUDY    30  30 100 S8        29.97F WCI  23
ROLLA          CLOUDY    23  23 100 S20       29.73F WCI   8
 ***** THE ABOVE OBSERVATIONS ARE NON NWS ARE NOT QUALITY
       CONTROLLED AND MAY MIS-REPORT RAIN FOR SNOW...
$$

  *****  WEATHER ACROSS NORTHERN MINNESOTA  *****

CITY           SKY/WX    TMP DP  RH WIND       PRES   REMARKS
FLAG ISLAND    MOCLDY    16  10  79 S9        29.87F WCI   4
WARROAD        CLOUDY    19  12  73 S8        29.89F WCI   9
ROSEAU         MOCLDY    19  12  73 S9        29.88F WCI   9
HALLOCK        CLOUDY    21  16  79 S16       29.87F WCI   7
THF RVR FALLS  CLOUDY    21  16  79 S9        29.91F WCI  11
BAUDETTE       CLOUDY    20  13  74 S7        29.88F WCI  11
WASKISH        CLOUDY    19  16  86 CALM      29.92F
CROOKSTON      CLOUDY    25  19  80 S14       29.94F WCI  13
STEPHEN NDAWN    N/A     21  18  86 S13         N/A  WCI   9
GREENBUSH NDAW   N/A     19  16  86 S12         N/A  WCI   7
$$
  *****  WEATHER ACROSS CENTRAL AND WEST MINNESOTA  *****

CITY           SKY/WX    TMP DP  RH WIND       PRES   REMARKS
FOSSTON        CLOUDY    21  16  79 SW9       29.93F WCI  11
BEMIDJI        CLOUDY    25  18  74 S6        29.93F WCI  18
PARK RAPIDS    CLOUDY    26  18  71 S9        29.94F WCI  17
ELBOW LAKE     FAIR      22  21  94 CALM      30.00F
WADENA         CLOUDY    25  21  86 SW5       29.99R WCI  19
DETROIT LAKES  CLOUDY    25  21  86 SW3       29.97F
MOORHEAD       CLOUDY    25  21  86 S8        29.98F WCI  16
FERGUS FALLS   CLOUDY    21  19  93 SE3       30.02F
MORRIS MN      MOCLDY    25  21  86 SW3       30.01S
STAPLES        CLOUDY    21  18  86 S5        29.99S WCI  15
$$
  *****  WEATHER ELSEWHERE ACROSS MINNESOTA  *****

CITY           SKY/WX    TMP DP  RH WIND       PRES   REMARKS
DULUTH         MOCLDY    19  14  81 SE5       29.99F WCI  12
INTRNTL FALLS  CLOUDY    17   9  70 SE5       29.92F WCI  10
ELY            MOCLDY    14   9  79 S8        29.96F WCI   3
CLOQUET        MOCLDY    18  12  79 CALM      30.01F
WHEATON        CLOUDY    25  19  80 SE3       30.03F
BRAINERD       CLOUDY    21  14  74 S3        30.00S
HIBBING        CLOUDY    21  12  68 VRB6      29.97F WCI  13
ALEXANDRIA     CLOUDY    25  21  85 W5        30.01R WCI  19
SAINT CLOUD    MOCLDY    23  17  78 CALM      30.04R
MINNEAPOLIS    PTCLDY    22  14  71 SE7       30.06R WCI  13
$$

  *****  WEATHER ACROSS SOUTH DAKOTA  *****

CITY           SKY/WX    TMP DP  RH WIND       PRES   REMARKS
SIOUX FALLS    CLOUDY    33  30  88 W7        30.03R
BROOKINGS      NOT AVBL
WATERTOWN      CLOUDY    30  27  88 SW6       29.98R WCI  24
HURON          CLOUDY    33  30  88 S7        30.00F
SISSETON         N/A     24  21  88 S7        29.99R WCI  16
ABERDEEN       CLOUDY    32  29  88 S7        29.97F
MITCHELL       CLOUDY    35  31  85 S3        30.03R
PIERRE         CLOUDY    37  29  72 S7        29.94F
MOBRIDGE       CLOUDY    36  30  79 SE8       29.89F
RAPID CITY     PTCLDY    36  22  56 CALM      29.95S
$$

  *****  SOME WEATHER IN NEARBY STATES *****

CITY           SKY/WX    TMP DP  RH WIND       PRES   REMARKS
GLASGOW MT     CLEAR     44  35  70 W6        29.87R
GREAT FALLS MT CLOUDY    52  31  44 SW16      30.06R
CHEYENNE WY    CLEAR     44  26  49 NW9       30.15R
SCOTTSBLUFF NE PTCLDY    44  33  65 W9        30.08R
OMAHA NE       CLOUDY    37  32  82 CALM      30.08S
DES MOINES IA  CLOUDY    33  26  75 N9        30.07R
DAVENPORT IA   CLEAR     19  12  74 N8        30.02R WCI   9
CHICAGO IL     MOCLDY    25  16  68 NE9       29.95R WCI  15
EAU CLAIRE WI  CLOUDY    20  10  65 CALM      30.06R
LA CROSSE WI   MOCLDY    25  14  63 CALM      30.07R
$$

  *****  SOME NATIONAL WEATHER *****

CITY           SKY/WX    TMP DP  RH WIND       PRES   REMARKS
LA GUARDIA NY  MOCLDY    34  12  40 N12       29.94R
RALEIGH NC     PTCLDY    45  32  60 S5        29.84S
ATLANTA GA     CLOUDY    53  32  44 S8        29.77R
NEW ORLEANS LA PTCLDY    58  41  53 W15       29.91R
OKLAHOMA CITY  PTCLDY    50  26  39 N12       30.10R
ALBUQUERQUE NM PTCLDY    50  21  32 CALM      30.25R
SALT LAKE CITY MOCLDY    41  31  67 NW9       30.41S
LOS ANGELES CA MOCLDY    69  36  29 W8        29.97R
BOISE ID       CLEAR     38  33  82 W5        30.40S
SEATTLE WA     MOCLDY    58  49  72 CALM      30.06F
$$

*** WEATHER ACROSS MANITOBA...SASKATCHEWAN AND ONTARIO ***
                ***ONTARIO***

CITY           SKY/WX    TMP DP  RH WIND       PRES   REMARKS
GERALDTON      CLEAR    -11 -17  77 W2        30.03F
THUNDER BAY    MOCLDY     5  -2  72 CALM      30.08F
SIOUX LOOKOUT  CLOUDY    12   0  57 S9        29.88F WCI   0
TORONTO        MOCLDY    10   0  61 N16       30.06S WCI  -7
BIG TROUT LK   CLOUDY     1  -4  78 SE7       29.86F WCI -11
PICKLE LAKE    MOCLDY     5  -6  61 S9        29.87F WCI  -9
DRYDEN         FLURRIES  12   9  85 S13       29.87F WCI  -3
KENORA         CLOUDY    12   5  73 S8        29.85F WCI   1
$$
                *** MANITOBA***

CITY           SKY/WX    TMP DP  RH WIND       PRES   REMARKS
BRANDON        CLOUDY    25  23  93 SW8       29.70F WCI  16
DAUPHIN        PTCLDY    30  25  80 W9        29.56F WCI  22
ISLAND LAKE    LGT SNOW   9   5  85 SE9       29.69F WCI  -5
PILOT MOUND      N/A     23  21  93 S12         N/A  WCI  12
THE PAS        LGT SNOW  27  25  93 S7        29.41F WCI  19
THOMPSON       LGT SNOW   5   1  85 E5        29.59F WCI  -4
WINNIPEG       NOT AVBL
LYNN LAKE      CLOUDY     3   1  92 NE6       29.54R WCI  -8
CHURCHILL      MOCLDY    -9 -15  77 SE10      29.87S WCI -28
$$
                ***SASKATCHEWAN***

CITY           SKY/WX    TMP DP  RH WIND       PRES   REMARKS
ESTEVAN        PTCLDY    36  32  87 W13       29.73R
KINDERSLEY     MOCLDY    36  32  87 SW7       29.81R
LLOYDMINSTER   PTCLDY    37  30  75 W16       29.73R
PRINCE ALBERT  PTCLDY    43  30  61 W15G21    29.57R
REGINA         PTCLDY    39  34  81 W16       29.72R
YORKTON        CLOUDY    37  32  81 W17G23    29.57F
N. BATTLEFORD  CLEAR     41  32  70 W13G20    29.72R
LA RONGE       LGT RAIN  39  36  87 W15       29.48R
SASKATOON      PTCLDY    39  30  70 W14       29.70R
SWIFT CURRENT  PTCLDY    39  36  87 SW9       29.82R
$$
NOTE: THESE ARE AUTOMATED STATIONS WITH LIMITED QUALITY CONTROL
      "FAIR" INDICATES FEW OR NO CLOUDS BELOW 12,000 FEET WITH NO
      SIGNIFICANT WEATHER AND/OR OBSTRUCTIONS TO VISIBILITY.
      SKY/WX - SKY CONDITION AND SIGNIFICANT WEATHER.
      TMP - AIR TEMPERATURE.    DP   - DEWPOINT TEMPERATURE.
      RH  - RELATIVE HUMIDITY.  PRES - PRESSURE.
      HX  - HEAT INDEX.         WCI  - WIND CHILL INDEX.
$


USA.gov is the U.S. government's official web portal to all federal, state and local government web resources and services.